METEOR 1-16 DEB

Satellite information

Favourite Embed

Satellite Type and Status

DEBRISIN ORBIT

Key statistics

Satellite METEOR 1-16 DEB at a glance.

Uptime

18853

Days in orbit

Revolutions

≈ 14.4

Per day

Orbit

LEO

Low Earth Orbit

Inclination

81.2

Latest

Satellite identification and parameters

Extended collection of information and parameters for METEOR 1-16 DEB.

Object identification

Identified? True

Debris? True

Object name: METEOR 1-16 DEB

International designator: 1974-011C

Object number (NORAD): 42999

Object ID (CCSDS): 42999

Country: COMMONWEALTH OF INDEPENDENT STATES (CIS)

Current information (Y/N): Y

RCS size: SMALL

Orbital parameters

Period: 99.989 minutes

Inclination: 81.2307 deg

SMA: 7136.103 km

Apoapsis: 779.967 km

Periapsis: 735.969 km

RAAN: 237.298 deg

Eccentricy: 0.0030828

Argument of periapsis: 299.1502 deg

Mean anomaly: 60.6601 deg

Mean motion: 14.40161222 rev/day

Mean motion (dot): 0.00010944 rev/day2

B* drag term: 0.0034378 1/REarth

Two-line elements (TLE)

Creation date: Oct. 15, 2025, 11:56 p.m.

Reference frame: TEME

Reference center: EARTH

Epoch: Oct. 15, 2025, 1:20 p.m. UTC

TLE line 0: 0 METEOR 1-16 DEB

TLE line 1: 1 42999U 74011C 25288.55589693 .00010944 00000-0 34378-2 0 9996

TLE line 2: 2 42999 81.2307 237.2980 0030828 299.1502 60.6601 14.40161222479514

Live tracking on map

Real-time ground track for satellite METEOR 1-16 DEB.

In-orbit conjunctions

A list of the most updated potential collisions computed for object METEOR 1-16 DEB.

Target Orbit TCA Probability of collision Miss distance Type
COSMOS 1190 LEO 2025-07-03 01:25:06 0.0001347073 453.0 (m) PAYLOAD
DMSP 5D-2 F13 DEB SSO 2025-03-04 16:54:20 0.0001032213 309.0 (m) DEBRIS
COSMOS 1275 DEB LEO 2024-11-12 07:26:06 0.000437905 451.0 (m) DEBRIS

Associated space launch

The Meteor-1 series was the first series of Soviet meteorological satellites.

METEOR 1-16 DEB was lifted into orbit during the mission ‘Vostok 8A92M | Meteor-1 16 (30L)’, on board a Vostok 8A92M space rocket.

The launch took place on March 5, 1974, 11:38 a.m. from 43/4 (43R).

For more information about the launch, click the button.

Launch to space Vostok 8A92M | Meteor-1 16 (30L)
Vostok 8A92M | Meteor-1 16 (30L)

Agency: N/A

Status: Launch Successful

Launch date: March 5, 1974, 11:38 a.m. UTC

Rocket: Vostok 8A92M

Launch pad: 43/4 (43R)

Location: Plesetsk Cosmodrome, Russian Federation

...

Latest news about this satellite

There are no fresh news available about this satellite. Check back as we update our databases every day.


Newsletter sign-up

Weekly statistics, charts and insights to help you stay on top of the space industry.